Tracking 33197 objects as of 18-Feb-2026
HD Live streaming from Space Station
objects crossing your sky now

STARLINK-34689

Track STARLINK-34689 now!
10-day predictions
STARLINK-34689 is classified as:


NORAD ID: 64949
Int'l Code: 2025-158T
Perigee: 555.0 km
Apogee: 558.3 km
Inclination: 97.6 °
Period: 95.6 minutes
Semi major axis: 6927 km
RCS: Unknown
Launch date: July 26, 2025
Source: United States (US)
Launch site: AIR FORCE WESTERN TEST RANGE (AFWTR)
Your satellite tracking list
Your tracking list is empty




NASA's NSSDC Master Catalog

Two Line Element Set (TLE):
1 64949U 25158T   26048.62829421  .00002451  00000-0  17403-3 0  9997
2 64949  97.6022 274.2602 0002402  93.5318 266.6183 15.05643315 32336
Source of the keplerian elements: AFSPC